SCP
0 0 0 0 0 0 0 0 0 0 0 0 0 0 0 0 0 0 0 0 0 0 0 0 0 0 0 0 0 0 0 1 1 0 0 0 0 1 0 0 0 0 0
0 0 0 0 0 0 0 0 0 0 0 0 0 0 0 0 0 0 0 0 0 0 0 0 0 0 0 0 0 0 0 0 1 1 0 0 0 0 0 0 0 0 0
0 0 0 0 0 0 0 0 0 0 0 0 0 0 0 0 0 0 0 0 0 0 0 0 0 0 0 0 0 0 1 0 0 1 1 0 0 0 0 0 0 0 0
0 0 0 0 0 0 0 0 0 0 0 0 0 0 0 0 0 0 0 0 0 0 0 0 0 0 0 0 0 0 0 1 0 0 0 1 1 0 0 0 0 0 0
0 0 0 0 0 0 0 0 0 0 0 0 0 0 0 0 0 0 0 0 0 0 0 0 0 0 0 0 0 0 0 0 0 0 0 0 0 1 0 0 0 0 0
0 0 0 0 0 0 0 0 0 0 0 0 0 0 0 0 0 0 0 0 0 0 0 0 0 0 0 0 0 0 0 0 0 0 0 0 0 0 0 0 0 0 0
0 0 0 0 0 0 0 0 0 0 0 0 0 0 0 0 0 0 0 0 0 0 0 0 0 0 0 0 0 0 0 0 0 0 0 0 0 0 0 0 1 0 0
0 0 0 0 0 0 0 0 0 0 0 0 0 0 0 0 0 0 0 0 0 0 0 0 0 0 0 0 0 0 0 0 0 0 0 0 0 0 1 1 0 0 0
0 0 0 0 0 0 0 0 0 0 0 0 0 0 0 0 0 0 0 0 0 0 0 0 0 0 0 0 0 0 0 0 0 0 0 0 0 0 0 1 0 1 1
0 0 0 0 0 0 0 0 0 0 0 0 0 0 0 0 0 0 0 0 0 0 0 -0 0 0 0 0 0 0 0 0 0 0 0 0 0 0 0 0 0 0 0
0 0 0 0 0 0 0 0 0 0 0 0 0 0 0 0 0 0 0 0 0 0 0 0 0 -0 0 0 0 0 0 0 0 0 0 0 0 0 0 0 0 0 0
0 0 0 0 0 0 0 0 0 0 0 0 0 0 0 0 0 0 0 0 0 0 0 0 0 0 0 0 0 0 0 0 0 0 0 0 0 0 0 0 0 1 1
0 0 0 0 0 0 0 0 0 0 0 0 0 0 0 0 0 0 0 0 0 0 0 0 0 0 0 0 0 0 0 0 0 0 0 0 0 0 0 0 0 0 0
0 0 0 0 0 0 0 0 0 0 0 0 0 0 0 0 0 0 0 0 0 0 0 0 0 0 0 0 0 0 0 0 0 0 0 0 0 0 0 0 0 0 0
0 0 0 0 0 0 0 0 0 0 0 0 0 0 0 0 0 0 0 0 0 0 0 0 0 0 0 0 -0 0 0 0 0 0 0 0 0 0 0 0 0 0 0
0 0 0 0 0 0 0 0 0 0 0 0 0 0 0 0 0 0 0 0 0 0 0 0 0 0 0 0 -0 0 0 0 0 0 0 0 0 0 0 0 0 0 0
0 0 0 0 0 0 0 0 0 0 0 0 0 0 0 0 0 0 0 0 0 0 0 0 0 0 0 0 0 0 0 0 0 0 0 0 0 0 0 0 0 0 0
0 0 0 0 0 0 0 0 0 0 0 0 0 0 0 0 0 0 0 0 0 0 0 0 0 0 0 0 -0 -0 0 0 0 0 0 0 0 0 0 0 0 0 0
0 0 0 0 0 0 0 0 0 0 0 0 0 0 0 0 0 0 0 0 0 0 0 0 0 0 0 0 -0 -0 -0 -0 0 0 0 0 0 0 0 0 0 0 0
0 0 0 0 0 0 0 0 0 0 0 0 0 0 0 0 0 0 0 0 0 0 0 0 0 0 -0 0 -0 0 0 0 0 -0 0 0 0 0 0 0 0 0 0
0 0 0 0 0 0 0 0 0 0 0 0 0 0 0 0 0 0 0 0 0 0 0 -0 -0 -0 0 -0 -0 -0 -0 -0 -0 0 -0 0 0 0 0 0 0 0 0
0 0 0 0 0 0 0 0 0 0 0 0 0 0 0 0 0 0 0 0 0 0 0 0 0 -0 -0 -0 -0 -0 -0 -0 -0 -0 -0 -0 0 0 0 0 0 0 0
0 0 0 0 0 0 0 0 0 0 0 0 0 0 0 0 0 0 0 0 0 0 -0 0 0 -0 -0 0 0 0 0 -0 0 0 -0 0 0 0 0 0 0 0 0
0 0 0 0 0 0 0 0 0 0 0 0 0 0 0 0 0 0 0 0 0 0 0 0 0 0 0 0 0 0 0 0 0 0 0 0 0 0 0 0 0 0 0
0 0 0 0 0 0 0 0 0 0 0 0 0 0 0 0 0 0 0 0 0 0 0 0 0 0 0 0 0 0 0 0 0 0 0 0 0 0 0 0 0 0 0
0 0 0 0 0 0 0 0 0 0 0 0 0 0 0 0 0 0 0 0 0 0 0 0 0 0 0 0 0 0 0 0 0 0 0 0 0 0 0 0 0 0 0
Wind_Speed_500mb
33 34 35 37 39 38 38 39 40 41 42 44 45 50 53 55 57 63 70 70 75 69 65 66 69 74 73 79 83 84 83 79 78 75 70 70 73 76 76 74 72 70 70
37 38 40 41 39 38 35 37 38 38 38 40 41 45 49 53 58 61 63 69 75 83 80 80 72 74 77 75 76 82 84 85 84 86 81 76 75 78 83 84 82 76 72
40 41 42 40 37 34 32 30 32 35 38 40 42 43 45 47 50 56 62 66 68 74 82 88 89 90 82 77 78 79 84 88 89 90 92 86 83 81 85 89 89 87 82
41 42 38 34 32 30 29 28 29 29 32 37 40 43 46 49 52 52 55 57 62 67 72 75 82 92 92 94 94 85 82 84 93 93 97 98 94 89 87 90 92 92 89
40 39 34 30 28 26 26 27 26 31 35 39 44 46 47 50 52 55 56 57 58 59 62 65 72 77 83 91 96 93 94 87 92 93 102 101 106 103 92 87 89 93 94
36 28 25 25 27 27 28 29 33 32 37 44 50 51 50 49 49 49 54 56 55 54 57 63 69 75 77 82 90 97 95 97 101 96 98 99 109 113 97 92 89 88 95
28 24 25 26 26 26 26 28 28 30 30 37 48 50 51 38 41 43 43 48 48 46 48 52 58 62 70 74 82 88 97 95 85 91 90 100 104 130 101 90 107 96 98
29 29 27 24 21 21 21 24 27 27 28 30 32 42 31 45 40 21 30 39 40 46 46 42 42 50 54 58 65 78 87 97 100 91 90 95 91 122 109 107 110 107 95
31 28 26 23 21 22 23 25 25 26 29 30 25 15 15 15 58 53 57 54 55 60 68 61 58 57 53 53 49 51 66 82 91 96 94 81 90 90 93 124 128 121 102
28 27 23 23 23 23 24 24 23 26 29 31 32 20 23 37 25 46 66 78 69 68 65 68 73 64 55 58 59 58 53 58 75 93 92 88 74 82 73 54 77 75 78
28 24 24 24 24 25 26 27 25 24 26 32 31 33 38 38 39 51 66 74 81 84 79 70 75 75 63 53 55 56 60 63 63 69 87 93 88 66 81 63 86 96 101
25 24 25 25 24 25 26 26 27 26 31 35 34 33 36 40 43 49 59 73 77 93 87 80 67 65 75 72 63 59 56 59 63 64 68 73 86 90 90 66 65 68 78
25 24 25 25 23 25 26 25 27 28 32 35 35 38 40 44 49 55 58 74 77 92 88 87 78 66 56 63 65 70 64 60 57 62 67 71 71 85 91 88 85 84 86
23 23 24 23 24 25 26 28 32 35 37 40 43 45 48 50 51 52 57 60 78 81 79 82 77 71 49 47 56 60 52 54 54 58 57 67 70 78 82 89 89 86 86
20 20 21 23 22 23 27 32 36 36 40 41 44 47 50 50 51 52 55 54 54 72 84 73 69 74 67 57 62 65 71 46 47 51 54 49 55 66 75 82 82 90 83
16 20 21 21 23 27 30 34 33 31 35 33 38 42 42 43 48 49 49 51 53 63 88 76 80 81 73 67 58 65 59 51 43 46 48 52 48 60 69 77 86 84 83
16 16 15 17 20 23 25 27 30 34 37 38 37 40 40 39 41 44 45 51 55 60 78 92 84 77 74 60 53 60 45 39 33 36 41 49 50 56 59 67 74 76 74
14 12 12 14 15 16 17 19 23 26 31 33 34 35 36 36 36 40 44 47 51 56 65 81 78 72 69 63 59 60 61 45 37 34 39 41 40 44 52 50 63 63 61
9 9 9 9 9 9 11 16 21 25 29 31 32 31 29 31 33 36 39 41 43 50 53 60 69 58 60 54 52 65 68 43 42 33 39 42 37 27 30 33 39 57 61
7 5 6 7 7 8 12 16 18 21 28 32 30 26 25 27 32 36 39 41 43 45 45 46 49 48 48 46 46 48 41 39 41 33 39 45 42 36 19 14 12 13 24
5 4 6 9 10 13 16 18 21 23 24 24 29 27 23 24 28 31 34 37 39 40 39 38 38 38 40 41 41 40 44 40 45 39 38 42 39 37 43 31 29 27 25
10 11 12 14 15 19 20 22 24 24 24 25 23 21 23 22 24 26 24 26 31 34 38 36 34 35 37 39 40 42 42 45 42 38 37 36 35 37 37 36 40 38 40
19 19 19 21 20 22 24 25 27 28 26 25 25 25 22 24 24 25 25 25 26 28 28 29 29 28 32 34 36 38 39 40 36 37 36 36 28 29 37 35 36 41 42
27 27 27 29 31 27 29 28 29 30 30 28 26 26 26 25 25 26 26 26 24 24 26 24 22 20 19 18 21 24 24 23 22 20 19 12 17 20 19 26 34 35 35
40 39 39 37 37 31 32 32 33 32 31 29 28 27 26 25 25 25 25 26 26 23 24 22 23 25 24 20 18 18 16 15 16 18 18 14 20 19 18 10 5 12 12
51 48 47 44 42 40 35 36 37 38 36 30 29 28 29 28 26 27 28 27 25 26 25 21 19 20 22 22 22 20 15 15 18 5 22 15 21 17 10 24 16 13 8
Wind_Direction_500mb
299 299 300 301 299 295 290 287 283 279 275 270 265 263 261 262 261 259 256 254 252 254 258 258 258 255 255 255 255 255 255 256 251 249 246 245 245 241 238 235 234 237 236
304 304 304 302 300 296 291 286 286 286 284 280 276 272 268 264 263 264 262 259 254 254 254 258 259 260 254 257 257 257 256 256 253 251 248 247 246 243 240 237 237 237 239
303 303 303 303 301 296 292 288 287 288 291 291 289 286 283 279 274 269 268 267 264 260 258 258 259 259 262 257 258 254 258 257 256 254 250 248 246 245 242 240 238 237 236
298 300 302 299 294 296 297 299 296 291 287 287 288 287 287 285 284 284 281 279 276 272 266 263 260 260 260 259 258 257 253 254 259 258 253 249 247 245 243 241 240 239 236
296 297 297 295 295 293 294 296 296 299 300 300 299 298 296 294 291 288 287 284 279 278 275 271 267 263 260 258 258 258 257 252 252 255 255 253 248 244 242 243 241 242 241
291 292 290 291 290 291 293 295 297 298 302 305 304 307 307 305 300 292 287 286 286 282 276 272 270 268 266 263 259 258 258 256 256 257 253 255 252 242 238 239 241 244 244
287 284 286 287 289 293 298 303 303 300 298 302 312 311 317 319 311 297 291 285 286 283 278 275 274 277 276 271 264 260 258 257 256 259 257 256 255 258 235 243 248 241 245
282 287 291 294 293 298 302 302 302 307 310 321 328 333 329 325 314 313 292 289 287 286 285 284 279 281 285 283 278 263 257 257 256 256 254 255 259 250 263 248 239 237 236
285 288 288 294 300 307 308 309 313 315 314 320 324 309 323 309 318 314 304 302 296 288 280 281 280 284 287 286 290 287 267 259 258 258 258 257 255 269 262 247 234 238 233
278 281 289 293 298 301 305 308 309 312 307 313 309 313 270 277 304 309 303 305 310 307 300 284 275 275 290 290 283 282 282 273 265 262 256 254 261 260 258 247 232 232 248
277 281 283 286 291 298 303 302 303 301 308 304 300 299 298 294 282 279 291 305 301 304 305 301 283 273 278 293 292 284 280 278 273 270 262 258 255 256 257 259 259 258 248
276 277 279 282 288 292 292 295 296 305 306 297 297 294 291 291 286 287 288 292 296 298 303 305 301 293 274 282 293 290 284 280 273 271 269 264 256 252 254 242 245 244 248
272 272 276 278 285 288 290 294 299 303 296 297 297 294 289 282 285 288 288 289 290 294 296 298 304 302 296 282 295 291 283 281 275 273 268 263 266 256 253 255 249 248 248
269 267 269 279 284 292 300 304 302 297 298 299 296 294 293 293 294 294 291 293 294 291 292 293 300 302 312 295 294 312 289 277 275 271 277 266 266 262 257 256 250 251 253
268 271 275 276 284 296 301 297 295 299 298 299 298 297 298 301 302 302 299 293 283 288 289 295 296 301 303 296 290 302 296 294 282 275 273 270 273 275 264 255 252 252 254
282 278 277 290 304 300 297 299 307 311 306 306 305 300 298 296 295 298 301 297 288 281 281 289 292 295 302 301 295 300 294 285 283 284 285 278 273 274 271 260 251 257 250
276 283 299 304 304 303 305 309 314 313 309 303 297 294 294 295 297 300 299 296 291 287 283 290 292 298 297 299 290 292 302 294 288 287 294 299 291 291 285 259 253 249 248
289 300 311 315 313 314 318 330 340 339 328 318 308 298 295 293 297 300 300 301 296 295 292 292 293 294 295 294 290 290 293 292 293 297 309 297 297 288 295 280 256 244 247
290 307 321 327 335 350 3 8 5 2 353 340 328 316 305 300 302 303 304 303 303 302 303 295 296 293 291 293 288 288 288 288 293 292 309 308 287 279 244 238 211 213 222
287 310 318 338 342 2 359 353 345 357 1 357 347 336 326 319 316 312 309 305 302 301 303 303 300 298 292 293 287 297 307 305 304 290 302 305 292 278 271 229 218 193 185
282 296 303 312 313 329 332 336 335 342 338 342 350 353 344 340 340 333 323 320 314 309 306 298 300 304 303 314 311 311 305 307 307 300 300 304 294 279 263 263 248 248 247
283 285 293 293 302 306 310 315 320 324 325 330 334 331 338 340 341 349 345 334 344 337 323 309 299 302 302 306 309 311 309 311 312 301 305 305 298 277 268 260 256 259 259
275 280 286 292 295 297 299 304 306 309 314 315 321 323 330 330 330 338 347 345 346 349 348 340 330 315 305 307 309 309 308 304 302 302 303 300 297 280 270 263 257 256 259
274 275 277 283 286 288 290 293 296 300 305 309 311 315 320 328 331 334 338 338 340 347 348 345 345 344 339 326 324 327 332 330 324 327 315 310 330 310 278 266 257 260 267
271 275 276 277 280 282 284 288 289 291 294 299 301 305 309 315 320 327 332 334 337 337 340 345 343 338 342 347 351 357 1 17 14 27 26 17 3 3 23 21 306 280 293
268 270 272 274 275 278 280 283 284 286 286 287 289 294 298 304 308 313 316 320 323 325 328 331 335 334 337 343 346 350 4 11 11 358 19 14 10 7 30 41 30 39 25
Wind_Speed_850mb
33 34 35 37 39 38 38 39 40 41 42 44 45 50 53 55 57 63 70 70 75 69 65 66 69 74 73 79 83 84 83 79 78 75 70 70 73 76 76 74 72 70 70
37 38 40 41 39 38 35 37 38 38 38 40 41 45 49 53 58 61 63 69 75 83 80 80 72 74 77 75 76 82 84 85 84 86 81 76 75 78 83 84 82 76 72
40 41 42 40 37 34 32 30 32 35 38 40 42 43 45 47 50 56 62 66 68 74 82 88 89 90 82 77 78 79 84 88 89 90 92 86 83 81 85 89 89 87 82
41 42 38 34 32 30 29 28 29 29 32 37 40 43 46 49 52 52 55 57 62 67 72 75 82 92 92 94 94 85 82 84 93 93 97 98 94 89 87 90 92 92 89
40 39 34 30 28 26 26 27 26 31 35 39 44 46 47 50 52 55 56 57 58 59 62 65 72 77 83 91 96 93 94 87 92 93 102 101 106 103 92 87 89 93 94
36 28 25 25 27 27 28 29 33 32 37 44 50 51 50 49 49 49 54 56 55 54 57 63 69 75 77 82 90 97 95 97 101 96 98 99 109 113 97 92 89 88 95
28 24 25 26 26 26 26 28 28 30 30 37 48 50 51 38 41 43 43 48 48 46 48 52 58 62 70 74 82 88 97 95 85 91 90 100 104 130 101 90 107 96 98
29 29 27 24 21 21 21 24 27 27 28 30 32 42 31 45 40 21 30 39 40 46 46 42 42 50 54 58 65 78 87 97 100 91 90 95 91 122 109 107 110 107 95
31 28 26 23 21 22 23 25 25 26 29 30 25 15 15 15 58 53 57 54 55 60 68 61 58 57 53 53 49 51 66 82 91 96 94 81 90 90 93 124 128 121 102
28 27 23 23 23 23 24 24 23 26 29 31 32 20 23 37 25 46 66 78 69 68 65 68 73 64 55 58 59 58 53 58 75 93 92 88 74 82 73 54 77 75 78
28 24 24 24 24 25 26 27 25 24 26 32 31 33 38 38 39 51 66 74 81 84 79 70 75 75 63 53 55 56 60 63 63 69 87 93 88 66 81 63 86 96 101
25 24 25 25 24 25 26 26 27 26 31 35 34 33 36 40 43 49 59 73 77 93 87 80 67 65 75 72 63 59 56 59 63 64 68 73 86 90 90 66 65 68 78
25 24 25 25 23 25 26 25 27 28 32 35 35 38 40 44 49 55 58 74 77 92 88 87 78 66 56 63 65 70 64 60 57 62 67 71 71 85 91 88 85 84 86
23 23 24 23 24 25 26 28 32 35 37 40 43 45 48 50 51 52 57 60 78 81 79 82 77 71 49 47 56 60 52 54 54 58 57 67 70 78 82 89 89 86 86
20 20 21 23 22 23 27 32 36 36 40 41 44 47 50 50 51 52 55 54 54 72 84 73 69 74 67 57 62 65 71 46 47 51 54 49 55 66 75 82 82 90 83
16 20 21 21 23 27 30 34 33 31 35 33 38 42 42 43 48 49 49 51 53 63 88 76 80 81 73 67 58 65 59 51 43 46 48 52 48 60 69 77 86 84 83
16 16 15 17 20 23 25 27 30 34 37 38 37 40 40 39 41 44 45 51 55 60 78 92 84 77 74 60 53 60 45 39 33 36 41 49 50 56 59 67 74 76 74
14 12 12 14 15 16 17 19 23 26 31 33 34 35 36 36 36 40 44 47 51 56 65 81 78 72 69 63 59 60 61 45 37 34 39 41 40 44 52 50 63 63 61
9 9 9 9 9 9 11 16 21 25 29 31 32 31 29 31 33 36 39 41 43 50 53 60 69 58 60 54 52 65 68 43 42 33 39 42 37 27 30 33 39 57 61
7 5 6 7 7 8 12 16 18 21 28 32 30 26 25 27 32 36 39 41 43 45 45 46 49 48 48 46 46 48 41 39 41 33 39 45 42 36 19 14 12 13 24
5 4 6 9 10 13 16 18 21 23 24 24 29 27 23 24 28 31 34 37 39 40 39 38 38 38 40 41 41 40 44 40 45 39 38 42 39 37 43 31 29 27 25
10 11 12 14 15 19 20 22 24 24 24 25 23 21 23 22 24 26 24 26 31 34 38 36 34 35 37 39 40 42 42 45 42 38 37 36 35 37 37 36 40 38 40
19 19 19 21 20 22 24 25 27 28 26 25 25 25 22 24 24 25 25 25 26 28 28 29 29 28 32 34 36 38 39 40 36 37 36 36 28 29 37 35 36 41 42
27 27 27 29 31 27 29 28 29 30 30 28 26 26 26 25 25 26 26 26 24 24 26 24 22 20 19 18 21 24 24 23 22 20 19 12 17 20 19 26 34 35 35
40 39 39 37 37 31 32 32 33 32 31 29 28 27 26 25 25 25 25 26 26 23 24 22 23 25 24 20 18 18 16 15 16 18 18 14 20 19 18 10 5 12 12
51 48 47 44 42 40 35 36 37 38 36 30 29 28 29 28 26 27 28 27 25 26 25 21 19 20 22 22 22 20 15 15 18 5 22 15 21 17 10 24 16 13 8
Wind_Direction_850mb
299 299 300 301 299 295 290 287 283 279 275 270 265 263 261 262 261 259 256 254 252 254 258 258 258 255 255 255 255 255 255 256 251 249 246 245 245 241 238 235 234 237 236
304 304 304 302 300 296 291 286 286 286 284 280 276 272 268 264 263 264 262 259 254 254 254 258 259 260 254 257 257 257 256 256 253 251 248 247 246 243 240 237 237 237 239
303 303 303 303 301 296 292 288 287 288 291 291 289 286 283 279 274 269 268 267 264 260 258 258 259 259 262 257 258 254 258 257 256 254 250 248 246 245 242 240 238 237 236
298 300 302 299 294 296 297 299 296 291 287 287 288 287 287 285 284 284 281 279 276 272 266 263 260 260 260 259 258 257 253 254 259 258 253 249 247 245 243 241 240 239 236
296 297 297 295 295 293 294 296 296 299 300 300 299 298 296 294 291 288 287 284 279 278 275 271 267 263 260 258 258 258 257 252 252 255 255 253 248 244 242 243 241 242 241
291 292 290 291 290 291 293 295 297 298 302 305 304 307 307 305 300 292 287 286 286 282 276 272 270 268 266 263 259 258 258 256 256 257 253 255 252 242 238 239 241 244 244
287 284 286 287 289 293 298 303 303 300 298 302 312 311 317 319 311 297 291 285 286 283 278 275 274 277 276 271 264 260 258 257 256 259 257 256 255 258 235 243 248 241 245
282 287 291 294 293 298 302 302 302 307 310 321 328 333 329 325 314 313 292 289 287 286 285 284 279 281 285 283 278 263 257 257 256 256 254 255 259 250 263 248 239 237 236
285 288 288 294 300 307 308 309 313 315 314 320 324 309 323 309 318 314 304 302 296 288 280 281 280 284 287 286 290 287 267 259 258 258 258 257 255 269 262 247 234 238 233
278 281 289 293 298 301 305 308 309 312 307 313 309 313 270 277 304 309 303 305 310 307 300 284 275 275 290 290 283 282 282 273 265 262 256 254 261 260 258 247 232 232 248
277 281 283 286 291 298 303 302 303 301 308 304 300 299 298 294 282 279 291 305 301 304 305 301 283 273 278 293 292 284 280 278 273 270 262 258 255 256 257 259 259 258 248
276 277 279 282 288 292 292 295 296 305 306 297 297 294 291 291 286 287 288 292 296 298 303 305 301 293 274 282 293 290 284 280 273 271 269 264 256 252 254 242 245 244 248
272 272 276 278 285 288 290 294 299 303 296 297 297 294 289 282 285 288 288 289 290 294 296 298 304 302 296 282 295 291 283 281 275 273 268 263 266 256 253 255 249 248 248
269 267 269 279 284 292 300 304 302 297 298 299 296 294 293 293 294 294 291 293 294 291 292 293 300 302 312 295 294 312 289 277 275 271 277 266 266 262 257 256 250 251 253
268 271 275 276 284 296 301 297 295 299 298 299 298 297 298 301 302 302 299 293 283 288 289 295 296 301 303 296 290 302 296 294 282 275 273 270 273 275 264 255 252 252 254
282 278 277 290 304 300 297 299 307 311 306 306 305 300 298 296 295 298 301 297 288 281 281 289 292 295 302 301 295 300 294 285 283 284 285 278 273 274 271 260 251 257 250
276 283 299 304 304 303 305 309 314 313 309 303 297 294 294 295 297 300 299 296 291 287 283 290 292 298 297 299 290 292 302 294 288 287 294 299 291 291 285 259 253 249 248
289 300 311 315 313 314 318 330 340 339 328 318 308 298 295 293 297 300 300 301 296 295 292 292 293 294 295 294 290 290 293 292 293 297 309 297 297 288 295 280 256 244 247
290 307 321 327 335 350 3 8 5 2 353 340 328 316 305 300 302 303 304 303 303 302 303 295 296 293 291 293 288 288 288 288 293 292 309 308 287 279 244 238 211 213 222
287 310 318 338 342 2 359 353 345 357 1 357 347 336 326 319 316 312 309 305 302 301 303 303 300 298 292 293 287 297 307 305 304 290 302 305 292 278 271 229 218 193 185
282 296 303 312 313 329 332 336 335 342 338 342 350 353 344 340 340 333 323 320 314 309 306 298 300 304 303 314 311 311 305 307 307 300 300 304 294 279 263 263 248 248 247
283 285 293 293 302 306 310 315 320 324 325 330 334 331 338 340 341 349 345 334 344 337 323 309 299 302 302 306 309 311 309 311 312 301 305 305 298 277 268 260 256 259 259
275 280 286 292 295 297 299 304 306 309 314 315 321 323 330 330 330 338 347 345 346 349 348 340 330 315 305 307 309 309 308 304 302 302 303 300 297 280 270 263 257 256 259
274 275 277 283 286 288 290 293 296 300 305 309 311 315 320 328 331 334 338 338 340 347 348 345 345 344 339 326 324 327 332 330 324 327 315 310 330 310 278 266 257 260 267
271 275 276 277 280 282 284 288 289 291 294 299 301 305 309 315 320 327 332 334 337 337 340 345 343 338 342 347 351 357 1 17 14 27 26 17 3 3 23 21 306 280 293
268 270 272 274 275 278 280 283 284 286 286 287 289 294 298 304 308 313 316 320 323 325 328 331 335 334 337 343 346 350 4 11 11 358 19 14 10 7 30 41 30 39 25